When you browse on this site, cookies collect data to enhance your experience and personalize the content and advertising you see.
Visit our Privacy Policy to learn more. By continuing to use the site, you agree to this use of cookies and data.
  • In Hungary
  • List of Countries
  • For 7 days
  • Water Temperature
  • Satellite Maps
  • Weather Map
  • News
  • Weather Widgets
  • user-avatar
    Login

    Hourly Weather Hulan Ergi

    Today, 10 December, Monday

    Time Temperature Precipitation Wind Pressure Humidity
    00:00 -18°C° 0 mm 2 mps 763 mmHg 42%
    01:00 -18°C° 0 mm 2 mps 763 mmHg 44%
    02:00 -18°C° 0 mm 2 mps 764 mmHg 45%
    03:00 -18°C° 0 mm 2 mps 764 mmHg 47%
    04:00 -17°C° 0 mm 1 mps 764 mmHg 48%
    05:00 -17°C° 0 mm 1 mps 764 mmHg 49%
    06:00 -17°C° 0 mm 1 mps 764 mmHg 50%
    07:00 -17°C° 0 mm 1 mps 764 mmHg 50%
    08:00 -17°C° 0 mm 1 mps 765 mmHg 50%
    09:00 -16°C° 0 mm 1 mps 764 mmHg 45%
    10:00 -14°C° 0 mm 1 mps 764 mmHg 39%
    11:00 -13°C° 0 mm 1 mps 764 mmHg 34%
    12:00 -12°C° 0 mm 1 mps 764 mmHg 32%
    13:00 -12°C° 0 mm 1 mps 764 mmHg 30%
    14:00 -11°C° 0 mm 1 mps 763 mmHg 28%
    15:00 -12°C° 0 mm 1 mps 763 mmHg 30%
    16:00 -13°C° 0 mm 1 mps 763 mmHg 33%
    17:00 -14°C° 0 mm 1 mps 763 mmHg 35%
    18:00 -14°C° 0 mm 1 mps 763 mmHg 36%
    19:00 -14°C° 0 mm 1 mps 763 mmHg 37%
    20:00 -14°C° 0 mm 1 mps 763 mmHg 38%
    21:00 -15°C° 0 mm 1 mps 763 mmHg 39%
    22:00 -15°C° 0 mm 1 mps 763 mmHg 40%
    23:00 -15°C° 0 mm 1 mps 763 mmHg 41%

    Tomorrow, 11 December, Tuesday

    Time Temperature Precipitation Wind Pressure Humidity
    00:00 -15°C° 0 mm 1 mps 763 mmHg 42%
    01:00 -15°C° 0 mm 1 mps 763 mmHg 42%
    02:00 -16°C° 0 mm 1 mps 763 mmHg 43%
    03:00 -16°C° 0 mm 1 mps 762 mmHg 44%
    04:00 -16°C° 0 mm 1 mps 762 mmHg 45%
    05:00 -16°C° 0 mm 1 mps 762 mmHg 46%
    06:00 -16°C° 0 mm 1 mps 762 mmHg 46%
    07:00 -16°C° 0 mm 1 mps 762 mmHg 47%
    08:00 -16°C° 0 mm 1 mps 762 mmHg 47%
    09:00 -15°C° 0 mm 1 mps 761 mmHg 43%
    10:00 -14°C° 0 mm 1 mps 761 mmHg 39%
    11:00 -13°C° 0 mm 1 mps 761 mmHg 34%
    12:00 -12°C° 0 mm 1 mps 761 mmHg 33%
    13:00 -12°C° 0 mm 1 mps 760 mmHg 31%
    14:00 -11°C° 0 mm 1 mps 760 mmHg 30%
    15:00 -12°C° 0 mm 1 mps 760 mmHg 33%
    16:00 -13°C° 0 mm 1 mps 759 mmHg 35%
    17:00 -14°C° 0 mm 1 mps 759 mmHg 38%
    18:00 -14°C° 0 mm 1 mps 759 mmHg 39%
    19:00 -14°C° 0 mm 1 mps 759 mmHg 39%
    20:00 -14°C° 0 mm 1 mps 759 mmHg 40%
    21:00 -17°C° 0 mm 2 mps 759 mmHg 42%
    22:00 -17°C° 0 mm 2 mps 759 mmHg 43%
    23:00 -17°C° 0 mm 2 mps 759 mmHg 45%

    Day after tomorrow, 12 December, Wednesday

    Time Temperature Precipitation Wind Pressure Humidity
    00:00 -17°C° 0 mm 2 mps 759 mmHg 47%
    01:00 -17°C° 0 mm 2 mps 758 mmHg 49%
    02:00 -17°C° 0 mm 2 mps 758 mmHg 51%
    03:00 -16°C° 0 mm 1 mps 758 mmHg 53%
    04:00 -16°C° 0 mm 1 mps 757 mmHg 54%
    05:00 -16°C° 0 mm 1 mps 757 mmHg 56%
    06:00 -18°C° 0 mm 2 mps 757 mmHg 55%
    07:00 -18°C° 0 mm 2 mps 757 mmHg 55%
    08:00 -18°C° 0 mm 2 mps 757 mmHg 55%
    09:00 -17°C° 0 mm 2 mps 756 mmHg 49%
    10:00 -15°C° 0 mm 2 mps 756 mmHg 44%
    11:00 -14°C° 0 mm 2 mps 756 mmHg 39%
    12:00 -14°C° 0 mm 2 mps 755 mmHg 38%
    13:00 -13°C° 0 mm 2 mps 755 mmHg 37%
    14:00 -13°C° 0 mm 2 mps 754 mmHg 36%
    15:00 -11°C° 0 mm 1 mps 754 mmHg 39%
    16:00 -12°C° 0 mm 1 mps 755 mmHg 41%
    17:00 -12°C° 0 mm 1 mps 755 mmHg 44%
    18:00 -12°C° 0 mm 1 mps 755 mmHg 47%
    19:00 -12°C° 0 mm 1 mps 755 mmHg 50%
    20:00 -13°C° 0 mm 1 mps 755 mmHg 53%
    21:00 -13°C° 0 mm 1 mps 755 mmHg 56%
    22:00 -16°C° 0 mm 2 mps 755 mmHg 59%
    23:00 -16°C° 0 mm 2 mps 756 mmHg 62%

    13 December, Thursday

    Time Temperature Precipitation Wind Pressure Humidity
    00:00 -16°C° 0 mm 2 mps 756 mmHg 65%
    01:00 -17°C° 0 mm 2 mps 756 mmHg 68%
    02:00 -18°C° 0 mm 3 mps 756 mmHg 71%
    03:00 -18°C° 0 mm 3 mps 757 mmHg 74%
    04:00 -19°C° 0 mm 3 mps 757 mmHg 77%
    05:00 -19°C° 0 mm 3 mps 757 mmHg 80%
    06:00 -19°C° 0 mm 3 mps 758 mmHg 79%
    07:00 -19°C° 0 mm 3 mps 759 mmHg 78%
    08:00 -21°C° 0 mm 3 mps 759 mmHg 76%
    09:00 -19°C° 0 mm 3 mps 760 mmHg 68%
    10:00 -18°C° 0 mm 3 mps 760 mmHg 59%
    11:00 -16°C° 0 mm 3 mps 760 mmHg 51%
    12:00 -16°C° 0 mm 3 mps 760 mmHg 48%
    13:00 -15°C° 0 mm 3 mps 760 mmHg 46%
    14:00 -14°C° 0 mm 2 mps 760 mmHg 43%
    15:00 -14°C° 0 mm 2 mps 760 mmHg 47%
    16:00 -13°C° 0 mm 1 mps 760 mmHg 50%
    17:00 -14°C° 0 mm 0 mps 761 mmHg 53%
    18:00 -14°C° 0 mm 0 mps 761 mmHg 54%
    19:00 -14°C° 0 mm 1 mps 761 mmHg 55%
    20:00 -14°C° 0 mm 1 mps 762 mmHg 56%
    21:00 -14°C° 0 mm 1 mps 762 mmHg 57%
    22:00 -17°C° 0 mm 2 mps 762 mmHg 58%
    23:00 -17°C° 0 mm 2 mps 762 mmHg 58%

    14 December, Friday

    Time Temperature Precipitation Wind Pressure Humidity
    00:00 -17°C° 0 mm 2 mps 762 mmHg 59%
    01:00 -17°C° 0 mm 2 mps 762 mmHg 60%
    02:00 -17°C° 0 mm 2 mps 762 mmHg 61%
    03:00 -17°C° 0 mm 2 mps 761 mmHg 62%
    04:00 -17°C° 0 mm 2 mps 761 mmHg 64%
    05:00 -15°C° 0 mm 1 mps 761 mmHg 65%
    06:00 -15°C° 0 mm 1 mps 761 mmHg 65%
    07:00 -15°C° 0 mm 1 mps 761 mmHg 66%
    08:00 -15°C° 0 mm 1 mps 761 mmHg 66%
    09:00 -16°C° 0 mm 2 mps 761 mmHg 59%
    10:00 -15°C° 0 mm 2 mps 761 mmHg 52%
    11:00 -13°C° 0 mm 2 mps 761 mmHg 44%
    12:00 -13°C° 0 mm 2 mps 760 mmHg 42%
    13:00 -12°C° 0 mm 2 mps 759 mmHg 40%
    14:00 -12°C° 0 mm 3 mps 759 mmHg 37%
    15:00 -13°C° 0 mm 3 mps 759 mmHg 42%
    16:00 -14°C° 0 mm 3 mps 759 mmHg 47%
    17:00 -15°C° 0 mm 3 mps 758 mmHg 52%
    18:00 -15°C° 0 mm 3 mps 758 mmHg 54%
    19:00 -15°C° 0 mm 3 mps 758 mmHg 56%
    20:00 -16°C° 0 mm 3 mps 758 mmHg 58%
    21:00 -16°C° 0 mm 3 mps 757 mmHg 59%
    22:00 -16°C° 0 mm 3 mps 757 mmHg 59%
    23:00 -16°C° 0 mm 3 mps 756 mmHg 60%

    15 December, Saturday

    Time Temperature Precipitation Wind Pressure Humidity
    00:00 -16°C° 0 mm 3 mps 756 mmHg 60%
    01:00 -16°C° 0 mm 3 mps 755 mmHg 60%
    02:00 -16°C° 0 mm 3 mps 754 mmHg 61%
    03:00 -16°C° 0 mm 3 mps 754 mmHg 62%
    04:00 -16°C° 0 mm 3 mps 753 mmHg 63%
    05:00 -16°C° 0 mm 3 mps 752 mmHg 64%
    06:00 -16°C° 0 mm 3 mps 752 mmHg 65%
    07:00 -16°C° 0 mm 3 mps 752 mmHg 65%
    08:00 -15°C° 0 mm 2 mps 751 mmHg 66%
    09:00 -14°C° 0 mm 2 mps 751 mmHg 61%
    10:00 -13°C° 0 mm 2 mps 750 mmHg 57%
    11:00 -12°C° 0 mm 2 mps 750 mmHg 52%
    12:00 -12°C° 0 mm 2 mps 749 mmHg 51%
    13:00 -9°C° 0 mm 1 mps 748 mmHg 50%
    14:00 -9°C° 0 mm 1 mps 748 mmHg 48%
    15:00 -10°C° 0 mm 1 mps 748 mmHg 52%
    16:00 -11°C° 0 mm 1 mps 748 mmHg 56%
    17:00 -14°C° 0 mm 2 mps 748 mmHg 59%
    18:00 -14°C° 0 mm 2 mps 749 mmHg 59%
    19:00 -14°C° 0 mm 2 mps 749 mmHg 59%
    20:00 -14°C° 0 mm 2 mps 749 mmHg 59%
    21:00 -14°C° 0 mm 2 mps 749 mmHg 60%
    22:00 -14°C° 0 mm 2 mps 749 mmHg 61%
    23:00 -15°C° 0 mm 3 mps 748 mmHg 61%
    Show more